Regional Weather Roundup
Issued by NWS

Home | Current Version | Previous Version | Text Only | Print | Product List | Glossary Off
Versions: 1 2 3 4 5 6 7 8 9 10 11 12 13 14 15 16 17 18 19 20 21 22 23 24 25 26 27 28 29 30 31 32 33 34 35 36 37 38 39 40 41 42 43 44 45 46 47 48 49 50

000
ASUS43 KMPX 140210
RWRMN
WEATHER ROUNDUP FOR MINNESOTA
NATIONAL WEATHER SERVICE TWIN CITIES/CHANHASSEN MN
800 PM CST WED DEC 13 2017


NOTE: "FAIR" INDICATES FEW OR NO CLOUDS BELOW 12,000 FEET WITH NO
SIGNIFICANT WEATHER AND/OR OBSTRUCTIONS TO VISIBILITY. N/A MEANS
CURRENT SKY AND/OR WEATHER CONDITIONS ARE NOT AVAILABLE.

MNZ060>063-068>070-140300-
   Twin Cities Metro

CITY           SKY/WX    TMP DP  RH WIND       PRES   REMARKS
TWIN CITIES    PTCLDY    21  16  81 N9        29.91R WCI  11
ST PAUL        CLEAR     21  15  78 NW12      29.92R WCI   9
CRYSTAL        CLEAR     19  12  74 N8        29.90R WCI   9
BLAINE         CLEAR     19  16  86 NW7       29.90R WCI  10
LAKEVILLE      CLOUDY    21  18  86 N10       29.89R WCI  10
EDEN PRAIRIE   CLEAR     21  14  74 NW13      29.90R WCI   9
SOUTH ST PAUL  CLEAR     22  16  76 N8        29.90R WCI  13
LAKE ELMO      FAIR      21  16  79 NW8       29.90R WCI  12
$$
MNZ001>005-007-008-013>017-022>024-027-028-140300-
   Northwest Minnesota

CITY           SKY/WX    TMP DP  RH WIND       PRES   REMARKS
BEMIDJI        CLOUDY    14  10  84 NE7       29.91R WCI   4
HALLOCK        CLOUDY    18  14  86 N8        30.00R WCI   7
ROSEAU         CLOUDY    14   9  79 CALM      29.95S
WARROAD        CLOUDY     7   1  78 W3        29.94F
THIEF RVR FALL FLURRIES  15  12  88 N7        29.96R WCI   5
CROOKSTON      FLURRIES  18  12  79 NE7       29.99R WCI   8
FOSSTON        FLURRIES  12  10  92 N7        29.94R WCI   2
DETROIT LAKES  CLOUDY    19  14  79 N8        29.93R WCI   9
MOORHEAD       MIX PCPN  19  12  73 N15       29.98R WCI   5
PARK RAPIDS    CLOUDY    15  10  80 NE9       29.89R WCI   3
MAHNOMEN       CLOUDY    15  11  83 N14       29.93S WCI   1
$$
MNZ006-009>011-018-025>026-140300-
   North Central Minnesota

CITY           SKY/WX    TMP DP  RH WIND       PRES   REMARKS
BAUDETTE       CLOUDY     8   5  87 W3        29.93R
FLAG ISLAND    CLOUDY     5   3  92 CALM      29.93S
INTL FALLS     CLOUDY    16  11  80 N7        29.91R WCI   6
WASKISH        FLURRIES  12  10  92 CALM      29.93S
BIG FORK       FLURRIES  18  12  79 NW5       29.90R WCI  11
LONGVILLE      FLURRIES  16  12  86 NW3       29.91R
GRAND RAPIDS   FLURRIES  18  14  84 N9        29.91R WCI   7
CRANE LAKE     FLURRIES  12  10  92 CALM      29.92S
ORR            CLOUDY    16  10  79 CALM      29.86F
COOK           CLOUDY    16  10  79 CALM      29.89S
WALKER         CLOUDY    14  10  82 N6        29.91R WCI   5
$$
MNZ012-019>021-037-140300-
   Northeast Minnesota

CITY           SKY/WX    TMP DP  RH WIND       PRES   REMARKS
DULUTH         CLOUDY    16  13  88 N12       29.85R WCI   3
ELY            FLURRIES  10   7  85 CALM      29.88R
HIBBING        CLOUDY    16  11  80 N9        29.88R WCI   4
EVELETH        CLOUDY    15   9  78 N3        29.88S
DULUTH HARBOR  CLOUDY    23  19  86 N17       29.91R WCI   9
TWO HARBORS    CLEAR     14   9  79 CALM      29.87R
SILVER BAY     CLEAR      9   7  92 CALM      29.87R
GRAND MARAIS     N/A     11   3  70 CALM      29.91R
G MARAIS ARPRT CLEAR      1  -4  78 NW8       29.81R WCI -12
$$
MNZ029>031-032-039>041-046>048-054>057-064-140300-
   West Central Minnesota

CITY           SKY/WX    TMP DP  RH WIND       PRES   REMARKS
FERGUS FALLS   CLOUDY    19  14  79 N7        29.97R WCI  10
WHEATON        CLOUDY    21  16  79 N12G17    29.99R WCI   9
MORRIS         CLOUDY    21  18  86 NW14G20   29.93R WCI   8
ALEXANDRIA     CLOUDY    20  14  77 N12       29.90R WCI   8
ELBOW LAKE     CLOUDY    19  15  81 NW10G17   29.93R WCI   8
WADENA         CLOUDY    16  10  79 N8        29.91R WCI   5
GLENWOOD       MOCLDY    19  16  86 N9        29.91R WCI   9
APPLETON       CLOUDY    27  19  74 N22       29.94R WCI  12
BENSON         CLOUDY    23  16  74 NE12      29.95R WCI  12
ORTONVILLE     CLOUDY    25  19  80 N17       29.95R WCI  11
MADISON        CLOUDY    28  23  80 N16       29.95R WCI  17
WILLMAR        CLOUDY    25  18  74 N10       29.92R WCI  15
$$
MNZ033>034-036-042>043-049>051-058-059-140300-
   Central Minnesota

CITY           SKY/WX    TMP DP  RH WIND       PRES   REMARKS
ST CLOUD       PTCLDY    18  13  80 N8        29.91R WCI   8
SAUK CENTRE    FAIR      17  12  79 N6        29.92R WCI   9
PAYNESVILLE    CLEAR     17  14  86 N5        29.92R WCI  10
AITKIN         CLOUDY    16  12  86 NW7       29.89R WCI   6
PINE RIVER     FLURRIES  14  10  85 N10       29.94R WCI   1
BRAINERD       CLOUDY    18  12  77 N10       29.91R WCI   6
STAPLES        CLOUDY    16  10  79 N8        29.92R WCI   5
LONG PRAIRIE   FAIR      14  12  92 NW3       29.91R
LITTLE FALLS   CLEAR     18   9  68 N3        29.92S
LITCHFIELD     CLEAR     19  18  93 N6        29.91S WCI  11
BUFFALO        PTCLDY    20  14  79 NW6       29.93R WCI  12
MAPLE LAKE     CLOUDY    21  17  82 NW8       29.93R WCI  12
HUTCHINSON     CLEAR     22  17  82 NW14      29.91R WCI   9
$$
MNZ037-044-045-052-053-140300-
   East Central Minnesota

CITY           SKY/WX    TMP DP  RH WIND       PRES   REMARKS
PRINCETON      MOCLDY    18  12  79 CALM      29.91R
MORA           CLOUDY    19  14  79 NW7       29.91R WCI  10
CAMBRIDGE      CLOUDY    21  12  68 NW6       29.91R WCI  14
RUSH CITY      CLOUDY    22  17  82 N8        29.90R WCI  12
MOOSE LAKE     FLURRIES  21  16  79 N6        29.88R WCI  14
HINCKLEY       CLOUDY    23  18  80 N10       29.90R WCI  12
CLOQUET        FLURRIES  18  12  79 N12       29.87R WCI   5
MCGREGOR       CLOUDY    21  18  86 N6        29.90R WCI  14
$$
MNZ071>073-080-081-089-090-097-098-140300-
   Southwest Minnesota

CITY           SKY/WX    TMP DP  RH WIND       PRES   REMARKS
MONTEVIDEO     CLOUDY    25  19  80 N15       29.93R WCI  12
GRANITE FALLS  CLOUDY    27  21  77 NW15      29.94R WCI  16
CANBY          CLOUDY    28  26  91 NW10      29.95R WCI  19
MARSHALL       CLOUDY    26  22  84 N20       29.93R WCI  12
REDWOOD FALLS  CLOUDY    26  17  68 N12G18    29.92R WCI  16
OLIVIA         MOCLDY    27  19  74 N10G17    29.91R WCI  17
PIPESTONE      CLOUDY    30  25  80 NE16G24   29.89R WCI  19
WINDOM           N/A     27  14  59 NW21G33   29.89R WCI  13
WORTHINGTON    CLOUDY    28  24  85 N17G29    29.90R WCI  16
JACKSON        CLOUDY    28  23  80 MISG      29.88R
SLAYTON        CLOUDY    26  25  94 N17G28    29.91R WCI  13
$$
MNZ065>067-074>077-082>085-091>093-140300-
   South Central Minnesota

CITY           SKY/WX    TMP DP  RH WIND       PRES   REMARKS
MANKATO        PTCLDY    23  18  80 N13       29.90R WCI  11
NEW ULM        CLOUDY    25  18  74 N13       29.90R WCI  13
ST JAMES       CLOUDY    27  19  74 N15G21    29.91R WCI  15
FAIRMONT       CLOUDY    26  20  77 N16       29.89R WCI  14
GLENCOE        CLEAR     22  19  87 N8        29.90R WCI  13
FARIBAULT      CLOUDY    23  18  80 N7        29.88R WCI  15
OWATONNA       CLOUDY    23  18  80 N18       29.85R WCI   9
WASECA         MOCLDY    23  19  86 N15       29.88R WCI  10
ALBERT LEA     MOCLDY    23  18  80 N9G16     29.85R WCI  13
$$
MNZ078>079-086>088-094>096-140300-
   Southeast Minnesota

CITY           SKY/WX    TMP DP  RH WIND       PRES   REMARKS
ROCHESTER      CLOUDY    22  18  85 N17       29.82R WCI   8
RED WING       CLEAR     21  10  63 N7        29.88R WCI  13
STANTON        CLOUDY    25  19  77 N9G16     29.87R WCI  15
DODGE CENTER   CLOUDY    21  18  86 N13G22    29.83R WCI   9
WINONA           N/A     23  14  68 N6        29.86R WCI  16
AUSTIN         CLOUDY    25  18  74 N15G21    29.82R WCI  12
PRESTON        CLOUDY    22  15  74 N18G25    29.81R WCI   7
$$
ABBREVIATIONS USED IN REMARKS
   TC - TEMPERATURES IN CELSIUS
  WCI - WIND CHILL INDEX
   HX - HEAT INDEX
  VSB - VISIBILITY
$$



USA.gov is the U.S. government's official web portal to all federal, state and local government web resources and services.